User: anonymous   Login
Location: Leuk
(46.3174°N, 7.6341°E)
Time: 05:50:10
(UTC+00:00)
Language:

CZ-4C R/B - Orbit

View from above orbital plane
View from above orbital plane
View from above satellite
View from above satellite

Ground track
Ground track

The orbit data is extracted from the following two-line orbital elements,

1 36416U 10009D   21127.89208149 -.00000091  00000-0  96373-5 0  9998
2 36416  63.4225  48.4425 0526878 355.5692   4.0773 13.69593216558770
Epoch (UTC): 07 May 2021 21:24:35
Eccentricity: 0.0526878
inclination: 63.4225°
perigee height: 612 km
apogee height: 1390 km
right ascension of ascending node: 48.4425°
argument of perigee: 355.5692°
revolutions per day: 13.69593216
mean anomaly at epoch: 4.0773°
orbit number at epoch: 55877

The dashed part of the orbit path shows where the satellite is in the earth's shadow,  

DLR